User: anonymous   Login
Location: Newark
(35.9031°N, 139.7175°E)
Time: 07:47:41
(UTC+00:00)
Language:

Transit 4A - Orbit

View from above orbital plane
View from above orbital plane
View from above satellite
View from above satellite

Ground track
Ground track

The orbit data is extracted from the following two-line orbital elements,

1   116U 61015A   20144.89662828 -.00000051  00000-0  20017-4 0  9992
2   116  66.8101 268.2478 0073071  21.0904 339.3161 13.91770597988890
Epoch (UTC): 23 May 2020 21:31:08
Eccentricity: 0.0073071
inclination: 66.8101°
perigee height: 869 km
apogee height: 976 km
right ascension of ascending node: 268.2478°
argument of perigee: 21.0904°
revolutions per day: 13.91770597
mean anomaly at epoch: 339.3161°
orbit number at epoch: 98889

The dashed part of the orbit path shows where the satellite is in the earth's shadow,  

DLR